FW6591 Weather Reports


time (UTC)temp
C
wind
direction
speed
KPH
gust
KPH
rain 1hr
cm
rain 24hr
cm
rain mn
cm
humidity
%
barometer
mb
20260901200105 15 342 4.8 8.0 0.00 0.00 0.00 66 1023.7
20260901194605 15 13 6.4 12.9 0.00 0.00 0.00 67 1023.9
20260901193053 15 347 9.7 17.7 0.00 0.00 0.00 67 1024.0
20260901191549 16 349 8.0 14.5 0.00 0.00 0.00 62 1024.2
20260901190106 16 10 1.6 8.0 0.00 0.00 0.00 62 1024.4
20260901184553 17 360 4.8 9.7 0.00 0.00 0.00 61 1024.7
20260901183050 17 360 3.2 8.0 0.00 0.00 0.00 58 1024.4
20260901181554 17 9 3.2 6.4 0.00 0.00 0.00 59 1024.2
20260901180055 18 9 0.0 3.2 0.00 0.00 0.00 57 1024.3
20260901174551 18 0 0.0 3.2 0.00 0.00 0.00 56 1024.5
20260901173104 19 9 1.6 3.2 0.00 0.00 0.00 54 1024.1
20260901171554 20 0 0.0 3.2 0.00 0.00 0.00 51 1024.2
20260901170050 21 121 0.0 3.2 0.00 0.00 0.00 49 1024.1
20260901164626 21 0 0.0 3.2 0.00 0.00 0.00 49 1024.0
20260901163056 21 157 1.6 3.2 0.00 0.00 0.00 49 1023.8
20260901161551 21 193 0.0 3.2 0.00 0.00 0.00 50 1023.7
20260901160050 22 0 0.0 3.2 0.00 0.00 0.00 47 1023.6
20260901154545 22 158 0.0 3.2 0.00 0.00 0.00 48 1023.5
20260901153054 23 0 0.0 3.2 0.00 0.00 0.00 46 1023.2
20260901151555 25 0 0.0 0.0 0.00 0.00 0.00 43 1023.0
20260901150046 25 0 0.0 3.2 0.00 0.00 0.00 44 1023.0
20260901144559 25 161 0.0 3.2 0.00 0.00 0.00 46 1022.9
20260901143055 25 0 0.0 3.2 0.00 0.00 0.00 39 1022.9
20260901141556 26 190 0.0 4.8 0.00 0.00 0.00 39 1022.7
20260901140048 26 163 0.0 9.7 0.00 0.00 0.00 40 1022.8
20260901134547 26 111 0.0 4.8 0.00 0.00 0.00 37 1023.0
20260901133047 26 80 1.6 4.8 0.00 0.00 0.00 37 1023.0
20260901131611 26 198 1.6 4.8 0.00 0.00 0.00 38 1023.3
20260901130108 26 9 0.0 8.0 0.00 0.00 0.00 36 1023.2
20260901124559 26 148 1.6 4.8 0.00 0.00 0.00 35 1023.3
20260901123055 25 145 0.0 6.4 0.00 0.00 0.00 40 1023.4
20260901121558 25 178 1.6 9.7 0.00 0.00 0.00 40 1023.4
20260901120104 25 148 3.2 9.7 0.00 0.00 0.00 38 1023.5
20260901114600 24 211 4.8 9.7 0.00 0.00 0.00 42 1023.5
20260901113050 24 205 4.8 9.7 0.00 0.00 0.00 44 1023.9
20260901111552 24 178 1.6 6.4 0.00 0.00 0.00 41 1024.4
20260901110059 23 182 0.0 6.4 0.00 0.00 0.00 45 1024.9
20260901104553 22 242 1.6 4.8 0.00 0.00 0.00 43 1025.2
20260901103052 22 206 0.0 6.4 0.00 0.00 0.00 42 1025.4
20260901101559 22 110 0.0 3.2 0.00 0.00 0.00 46 1025.7
20260901100103 21 153 1.6 6.4 0.00 0.00 0.00 45 1026.3
20260901094546 21 0 1.6 6.4 0.00 0.00 0.00 46 1026.6
20260901093124 21 132 1.6 3.2 0.00 0.00 0.00 48 1026.8
20260901091600 20 160 1.6 4.8 0.00 0.00 0.00 54 1027.0
20260901090056 19 165 1.6 3.2 0.00 0.00 0.00 54 1027.2
20260901084557 18 200 1.6 3.2 0.00 0.00 0.00 57 1027.4
20260901083059 17 178 0.0 3.2 0.00 0.00 0.00 58 1027.7
20260901081610 17 190 1.6 4.8 0.00 0.00 0.00 60 1027.9
20260901080100 17 159 0.0 3.2 0.00 0.00 0.00 61 1028.0
20260901074551 15 188 0.0 6.4 0.00 0.00 0.00 64 1028.2
20260901073050 14 34 1.6 6.4 0.00 0.00 0.00 67 1028.3
20260901071603 12 350 3.2 4.8 0.00 0.00 0.00 71 1028.5
20260901070055 11 9 1.6 4.8 0.00 0.00 0.00 74 1028.5
20260901064551 10 351 3.2 4.8 0.00 0.00 0.00 79 1028.5
20260901063045 8 360 1.6 8.0 0.00 0.00 0.00 82 1028.4
20260901061548 7 360 3.2 8.0 0.00 0.00 0.00 85 1028.6
20260901060055 6 349 6.4 12.9 0.00 0.00 0.00 86 1028.4
20260901054550 5 360 4.8 12.9 0.00 0.00 0.00 87 1028.4
20260901053105 5 9 1.6 6.4 0.00 0.00 0.00 88 1028.2
20260901051555 4 0 0.0 6.4 0.00 0.00 0.00 87 1028.3
20260901050052 4 15 3.2 8.0 0.00 0.00 0.00 87 1028.2
20260901044552 5 12 4.8 4.8 0.00 0.00 0.00 88 1028.2
20260901043120 4 352 3.2 8.0 0.00 0.00 0.00 89 1028.0
20260901041609 4 360 3.2 8.0 0.00 0.00 0.00 88 1028.1
20260901034601 5 360 6.4 9.7 0.00 0.00 0.00 87 1027.8
20260901033103 5 352 0.0 4.8 0.00 0.00 0.00 87 1027.8
20260901031556 5 0 0.0 3.2 0.00 0.00 0.00 88 1027.6
20260901030050 5 315 3.2 12.9 0.00 0.00 0.00 87 1027.6
20260901024553 5 348 4.8 9.7 0.00 0.00 0.00 88 1027.4
20260901023059 5 0 0.0 3.2 0.00 0.00 0.00 87 1027.1
20260901021558 5 0 0.0 4.8 0.00 0.00 0.00 87 1027.1
20260901020055 5 347 1.6 4.8 0.00 0.00 0.00 88 1027.0
20260901014550 5 352 1.6 6.4 0.00 0.00 0.00 86 1027.1
20260901013054 6 339 3.2 12.9 0.00 0.00 0.00 85 1027.2
20260901011554 6 288 0.0 3.2 0.00 0.00 0.00 84 1027.2
20260901010100 7 0 0.0 3.2 0.00 0.00 0.00 84 1027.2
20260901004552 7 346 0.0 6.4 0.00 0.00 0.00 85 1027.4
20260901003102 7 9 4.8 6.4 0.00 0.00 0.00 84 1027.4
20260901001545 7 339 4.8 14.5 0.00 0.00 0.00 83 1027.3
20260901000055 7 337 1.6 3.2 0.00 0.00 0.00 81 1027.5
20260831234549 8 306 0.0 3.2 0.00 0.00 0.00 81 1027.6
20260831233047 8 0 0.0 6.4 0.00 0.00 0.00 81 1027.8
20260831231556 8 9 3.2 8.0 0.00 0.00 0.00 82 1027.8
20260831224550 8 323 4.8 8.0 0.00 0.00 0.00 79 1028.1
20260831223059 10 187 0.0 4.8 0.00 0.00 0.00 77 1028.1
20260831221602 10 229 3.2 8.0 0.00 0.00 0.00 77 1028.3
20260831220119 9 309 0.0 3.2 0.00 0.00 0.00 79 1028.2
20260831214548 9 28 3.2 6.4 0.00 0.00 0.00 77 1028.3
20260831213105 10 9 3.2 8.0 0.00 0.00 0.00 76 1028.4
20260831211554 12 348 6.4 12.9 0.00 0.00 0.00 69 1028.4
20260831210100 12 306 1.6 14.5 0.00 0.00 0.00 67 1028.7
20260831204555 13 9 3.2 16.1 0.00 0.00 0.00 66 1028.8
20260831203123 13 306 6.4 14.5 0.00 0.00 0.00 66 1028.8
20260831201547 11 325 1.6 16.1 0.00 0.00 0.00 74 1028.8